Find Starlink 11434

NORAD ID: 62420 Int'l Des: 2024-249 Owner: SPXS Country: US Constellation: starlink operational
LEOCIRCULAR

現在のビュー

3D地球を読み込み中...

About Starlink 11434

Starlink 11434 (NORAD 62420) is a starlink constellation satellite (v2 mini d2c) launched Dec 23, 2024 by SPXS of US. It operates in LEO, CIRCULAR orbit with a mass of 960.00 kg.

Starlink 11434について

説明を読み込み中...

次回通過

Passes for default location (London). Set your location on the main map for personalized predictions.

高度履歴

Loading altitude history...

軌道要素

1 62420U 24249M 26169.44157250 .00158414 00000-0 12148-2 0 9998
2 62420 42.9987 280.5959 0001496 316.4097 43.6652 15.70836753 85322
Epoch: Jun 18, 2026 • Age: 10 hours

現在のステータス

高度 357.1 km
速度 7.70 km/s
衛星直下点 -3.12°S, 113.68°W
打ち上げ日 Dec 23, 2024
運用期間 1.4 years
タイプ internet

技術仕様

分類 Payload
質量 960.00 kg
乾燥質量 910.00 kg
総質量 960.00 kg
長さ 0.30 m
直径 4.10 m
スパン 29.00 m
形状 Box + pan
製造者 SPXS
バスタイプ Starlink V2MD
フェーズステータス In Orbit
所有者/国 SPXS/US

Most Searched